Location: Bjelajci
(45.0103°N, 16.1758°E)
Time: 19:48:20
(UTC+00:00)

Cosmos 1975 Rocket - Pass Details

Date: 14 July 2020
Orbit: 604 x 633 km, 82.5° (Epoch: 06 August)

Event Time Altitude Azimuth Distance (km) Brightness Sun altitude
Rises 01:55:36 0° 358° (N) 2,907 7.3 -12.4°
Reaches altitude 10° 01:57:57 10° 6° (N) 2,001 6.5 -12.2°
Maximum altitude 02:02:08 40° 76° (ENE) 933 4.5 -11.7°
Drops below altitude 10° 02:06:18 10° 146° (SE) 2,001 5.5 -11.2°
Sets 02:08:39 0° 154° (SSE) 2,907 6.3 -10.9°
